Location: Lafig�re
(44.4503°N, 4.0357°E)
Time: 09:29:52
(UTC+00:00)

Vanguard 2 Rocket - Visible Passes

Search period start: 18 June 2021 00:00
Search period end: 28 June 2021 00:00
Orbit: 554 x 3326 km, 32.9° (Epoch: 17 June)

Date Brightness Start Highest point End Pass type
(mag) Time Alt. Az. Time Alt. Az. Time Alt. Az.
18 Jun 8.5 00:14:28 10° W 00:25:03 31° SSW 00:25:29 31° SSW visible
18 Jun 9.1 20:53:20 10° WSW 21:10:45 52° S 21:21:45 10° ESE visible
18 Jun 8.6 23:11:48 10° W 23:25:15 41° SSW 23:28:43 32° SSE visible
19 Jun 9.5 01:32:00 10° WSW 01:34:28 13° WSW 01:34:28 13° WSW visible
19 Jun 9.4 19:51:10 10° WSW 20:09:36 51° S 20:22:10 10° ESE visible
19 Jun 8.9 22:09:08 10° W 22:25:00 48° SSW 22:31:55 22° SE visible
20 Jun 9.0 00:28:28 10° W 00:37:40 25° SW 00:37:40 25° SW visible
20 Jun 9.1 21:06:32 10° WSW 21:24:14 53° S 21:35:07 11° ESE visible
20 Jun 8.7 23:25:29 10° W 23:38:27 35° SSW 23:40:51 32° S visible
21 Jun 9.4 20:04:12 10° WSW 20:23:03 54° S 20:35:55 10° ESE visible
21 Jun 8.9 22:22:38 10° W 22:38:17 44° SSW 22:44:02 28° SSE visible
22 Jun 9.4 00:43:01 10° W 00:49:47 18° SW 00:49:47 18° SW visible
22 Jun 9.2 21:19:55 10° W 21:37:37 51° SSW 21:47:14 17° SE visible
22 Jun 9.1 23:39:24 10° W 23:51:24 29° SW 23:52:58 28° SSW visible
23 Jun 9.4 20:17:27 10° WSW 20:36:28 55° S 20:49:34 10° ESE visible
23 Jun 9.0 22:36:17 10° W 22:51:24 38° SSW 22:56:09 29° S visible
24 Jun 9.9 00:59:00 10° WSW 01:01:54 12° WSW 01:01:54 12° WSW visible
24 Jun 9.3 21:33:25 10° W 21:50:52 47° SSW 21:59:20 22° SE visible
24 Jun 9.5 23:53:48 10° W 00:04:08 22° SW 00:05:04 22° SW visible
25 Jun 9.5 20:30:51 10° W 20:49:48 53° SSW 21:02:30 12° ESE visible
25 Jun 9.2 22:50:09 10° W 23:04:17 32° SW 23:08:15 27° S visible
26 Jun 9.3 21:47:04 10° W 22:03:55 41° SSW 22:11:26 24° SSE visible
27 Jun 9.9 00:09:15 10° W 00:16:38 15° SW 00:17:11 15° SW visible
27 Jun 9.6 20:44:24 10° W 21:02:58 49° SSW 21:14:38 16° SE visible
27 Jun 9.6 23:04:29 10° W 23:16:57 25° SW 23:20:23 22° SSW visible
